Tracking 31013 objects as of 11-Jul-2025
HD Live streaming from Space Station
objects crossing your sky now

SL-14 DEB

Track SL-14 DEB now!
10-day predictions


NORAD ID: 26023
Int'l Code: 1991-068AJ
Perigee: 1,460.4 km
Apogee: 1,471.9 km
Inclination: 82.6 °
Period: 115.1 minutes
Semi major axis: 7837 km
RCS: 0.0267 m2 (small)
Launch date: September 28, 1991
Source: Commonwealth of Independent States (former USSR) (CIS)
Launch site: PLESETSK MISSILE AND SPACE COMPLEX (PKMTR)

Note: This is SATELLITE DEBRIS
Your satellite tracking list
Your tracking list is empty




NASA's NSSDC Master Catalog

Two Line Element Set (TLE):
1 26023U 91068AJ  25191.39682167  .00000044  00000-0  21571-3 0  9994
2 26023  82.5793 347.7603 0007345 325.6416  61.5484 12.51311802544370
Source of the keplerian elements: AFSPC